| time (UTC) | temp F | wind direction | speed MPH | gust MPH | rain 1hr in | rain 24hr in | rain mn in | humidity % | barometer mb |
| 20260504050512 | 55 | 273 | 3.0 | 7.0 | 0.00 | 0.02 | 0.00 | 54 | 1007.6 |
| 20260504050012 | 55 | 288 | 4.0 | 10.0 | 0.00 | 0.02 | 0.00 | 53 | 1007.6 |
| 20260504045512 | 55 | 260 | 4.0 | 10.0 | 0.00 | 0.02 | 0.00 | 52 | 1007.6 |
| 20260504045010 | 55 | 231 | 4.0 | 13.0 | 0.00 | 0.02 | 0.00 | 52 | 1007.6 |
| 20260504044510 | 55 | 295 | 4.0 | 13.0 | 0.00 | 0.02 | 0.00 | 52 | 1007.6 |
| 20260504044011 | 56 | 273 | 4.0 | 12.0 | 0.00 | 0.02 | 0.00 | 52 | 1007.6 |
| 20260504043512 | 56 | 243 | 5.0 | 11.0 | 0.00 | 0.02 | 0.00 | 52 | 1007.5 |
| 20260504043012 | 55 | 275 | 5.0 | 11.0 | 0.00 | 0.02 | 0.00 | 52 | 1007.5 |
| 20260504042732 | 55 | 286 | 4.0 | 10.0 | 0.00 | 0.02 | 0.00 | 52 | 1007.6 |
| 20260504042458 | 55 | 256 | 5.0 | 11.0 | 0.00 | 0.02 | 0.00 | 52 | 1007.5 |
| 20260504041508 | 55 | 312 | 5.0 | 11.0 | 0.00 | 0.02 | 0.00 | 53 | 1007.6 |
| 20260504041010 | 55 | 301 | 4.0 | 9.0 | 0.00 | 0.02 | 0.00 | 53 | 1007.6 |
| 20260504040505 | 55 | 231 | 3.0 | 9.0 | 0.00 | 0.02 | 0.00 | 54 | 1007.6 |
| 20260504040225 | 55 | 251 | 3.0 | 7.0 | 0.00 | 0.02 | 0.00 | 54 | 1007.6 |
| 20260504035507 | 55 | 236 | 4.0 | 9.0 | 0.00 | 0.02 | 0.02 | 54 | 1007.6 |
| 20260504035006 | 55 | 313 | 4.0 | 9.0 | 0.00 | 0.02 | 0.02 | 53 | 1007.5 |
| 20260504034506 | 56 | 241 | 3.0 | 9.0 | 0.00 | 0.02 | 0.02 | 53 | 1007.5 |
| 20260504034006 | 56 | 293 | 4.0 | 9.0 | 0.00 | 0.02 | 0.02 | 53 | 1007.5 |
| 20260504033506 | 56 | 280 | 4.0 | 11.0 | 0.00 | 0.02 | 0.02 | 53 | 1007.5 |
| 20260504033006 | 56 | 230 | 4.0 | 11.0 | 0.00 | 0.02 | 0.02 | 53 | 1007.5 |
| 20260504032506 | 56 | 283 | 5.0 | 13.0 | 0.00 | 0.02 | 0.02 | 52 | 1007.5 |
| 20260504032230 | 56 | 254 | 5.0 | 13.0 | 0.00 | 0.02 | 0.02 | 52 | 1007.5 |
| 20260504031503 | 56 | 311 | 6.0 | 13.0 | 0.00 | 0.02 | 0.02 | 52 | 1007.6 |
| 20260504031226 | 56 | 286 | 6.0 | 13.0 | 0.00 | 0.02 | 0.02 | 52 | 1007.5 |
| 20260504030500 | 56 | 348 | 5.0 | 11.0 | 0.00 | 0.02 | 0.02 | 52 | 1007.6 |
| 20260504030003 | 56 | 297 | 5.0 | 10.0 | 0.00 | 0.02 | 0.02 | 53 | 1007.7 |
| 20260504025501 | 56 | 257 | 6.0 | 11.0 | 0.00 | 0.02 | 0.02 | 52 | 1007.7 |
| 20260504025001 | 56 | 335 | 6.0 | 13.0 | 0.00 | 0.02 | 0.02 | 52 | 1007.8 |
| 20260504024502 | 55 | 257 | 6.0 | 13.0 | 0.00 | 0.02 | 0.02 | 53 | 1007.7 |
| 20260504024002 | 55 | 290 | 4.0 | 11.0 | 0.00 | 0.02 | 0.02 | 52 | 1007.9 |
| 20260504023503 | 55 | 213 | 3.0 | 9.0 | 0.00 | 0.02 | 0.02 | 53 | 1008.0 |
| 20260504023001 | 55 | 300 | 3.0 | 8.0 | 0.00 | 0.02 | 0.02 | 54 | 1008.1 |
| 20260504022502 | 55 | 263 | 3.0 | 8.0 | 0.00 | 0.02 | 0.02 | 54 | 1008.1 |
| 20260504022002 | 55 | 283 | 3.0 | 6.0 | 0.00 | 0.02 | 0.02 | 55 | 1008.1 |
| 20260504021501 | 55 | 272 | 3.0 | 8.0 | 0.00 | 0.02 | 0.02 | 54 | 1008.1 |
| 20260504020958 | 55 | 278 | 3.0 | 8.0 | 0.00 | 0.02 | 0.02 | 55 | 1008.0 |
| 20260504020723 | 55 | 231 | 3.0 | 7.0 | 0.00 | 0.02 | 0.02 | 55 | 1008.0 |
| 20260504015959 | 55 | 306 | 3.0 | 9.0 | 0.00 | 0.02 | 0.02 | 56 | 1007.9 |
| 20260504015458 | 55 | 239 | 4.0 | 9.0 | 0.00 | 0.02 | 0.02 | 55 | 1008.0 |
| 20260504014958 | 55 | 281 | 5.0 | 11.0 | 0.00 | 0.02 | 0.02 | 56 | 1008.1 |
| 20260504014459 | 55 | 295 | 5.0 | 11.0 | 0.00 | 0.02 | 0.02 | 55 | 1008.1 |
| 20260504014000 | 54 | 338 | 5.0 | 9.0 | 0.00 | 0.02 | 0.02 | 57 | 1008.1 |
| 20260504013500 | 54 | 299 | 5.0 | 9.0 | 0.00 | 0.02 | 0.02 | 57 | 1008.3 |
| 20260504013224 | 54 | 294 | 5.0 | 9.0 | 0.00 | 0.02 | 0.02 | 57 | 1008.5 |
| 20260504012459 | 54 | 279 | 5.0 | 9.0 | 0.00 | 0.02 | 0.02 | 58 | 1008.5 |
| 20260504012001 | 54 | 341 | 4.0 | 10.0 | 0.00 | 0.02 | 0.02 | 58 | 1008.5 |
| 20260504011457 | 54 | 303 | 5.0 | 10.0 | 0.00 | 0.02 | 0.02 | 58 | 1008.3 |
| 20260504010958 | 54 | 7 | 4.0 | 10.0 | 0.00 | 0.02 | 0.02 | 59 | 1008.4 |
| 20260504010456 | 54 | 313 | 5.0 | 11.0 | 0.00 | 0.02 | 0.02 | 60 | 1008.5 |
| 20260504005956 | 54 | 314 | 7.0 | 18.0 | 0.00 | 0.02 | 0.02 | 59 | 1008.5 |
| 20260504005456 | 54 | 339 | 8.0 | 18.0 | 0.00 | 0.02 | 0.02 | 58 | 1008.7 |
| 20260504004954 | 54 | 301 | 7.0 | 15.0 | 0.00 | 0.02 | 0.02 | 58 | 1008.7 |
| 20260504004455 | 54 | 316 | 7.0 | 15.0 | 0.00 | 0.02 | 0.02 | 58 | 1008.6 |
| 20260504003954 | 55 | 317 | 7.0 | 13.0 | 0.00 | 0.02 | 0.02 | 56 | 1008.5 |
| 20260504003454 | 55 | 340 | 6.0 | 12.0 | 0.02 | 0.02 | 0.02 | 54 | 1008.4 |
| 20260504002953 | 55 | 296 | 5.0 | 12.0 | 0.02 | 0.02 | 0.02 | 54 | 1008.3 |
| 20260504002453 | 55 | 351 | 6.0 | 13.0 | 0.02 | 0.02 | 0.02 | 53 | 1008.3 |
| 20260504001952 | 55 | 298 | 8.0 | 14.0 | 0.02 | 0.02 | 0.02 | 52 | 1008.0 |
| 20260504001452 | 55 | 348 | 8.0 | 17.0 | 0.02 | 0.02 | 0.02 | 52 | 1008.0 |
| 20260504001205 | 55 | 287 | 9.0 | 17.0 | 0.02 | 0.02 | 0.02 | 52 | 1008.0 |
| 20260504000446 | 55 | 299 | 10.0 | 19.0 | 0.02 | 0.02 | 0.02 | 52 | 1008.2 |
| 20260503235946 | 56 | 309 | 11.0 | 23.0 | 0.02 | 0.02 | 0.02 | 51 | 1008.1 |
| 20260503235447 | 56 | 296 | 11.0 | 23.0 | 0.02 | 0.02 | 0.02 | 50 | 1008.3 |
| 20260503234948 | 56 | 316 | 10.0 | 23.0 | 0.02 | 0.02 | 0.02 | 49 | 1007.9 |
| 20260503234707 | 56 | 292 | 10.0 | 23.0 | 0.02 | 0.02 | 0.02 | 49 | 1007.8 |
| 20260503233948 | 56 | 300 | 10.0 | 18.0 | 0.02 | 0.02 | 0.02 | 49 | 1007.8 |
| 20260503233447 | 57 | 299 | 10.0 | 20.0 | 0.01 | 0.01 | 0.01 | 48 | 1007.9 |
| 20260503233207 | 57 | 289 | 9.0 | 20.0 | 0.01 | 0.01 | 0.01 | 47 | 1007.8 |
| 20260503232913 | 57 | 301 | 9.0 | 18.0 | 0.00 | 0.00 | 0.00 | 45 | 1007.5 |
| 20260503232536 | 57 | 287 | 9.0 | 18.0 | 0.01 | 0.01 | 0.01 | 46 | 1007.5 |
| 20260503231440 | 57 | 288 | 9.0 | 20.0 | 0.00 | 0.00 | 0.00 | 44 | 1007.5 |
| 20260503230937 | 57 | 349 | 8.0 | 20.0 | 0.00 | 0.00 | 0.00 | 43 | 1007.6 |
| 20260503230439 | 57 | 354 | 6.0 | 12.0 | 0.00 | 0.00 | 0.00 | 44 | 1007.5 |
| 20260503225937 | 57 | 320 | 5.0 | 11.0 | 0.00 | 0.00 | 0.00 | 44 | 1007.4 |
| 20260503225439 | 57 | 269 | 4.0 | 9.0 | 0.00 | 0.00 | 0.00 | 45 | 1007.4 |
| 20260503224938 | 57 | 252 | 5.0 | 15.0 | 0.00 | 0.00 | 0.00 | 45 | 1007.4 |
| 20260503224438 | 57 | 271 | 5.0 | 15.0 | 0.00 | 0.00 | 0.00 | 44 | 1007.5 |
| 20260503223936 | 57 | 348 | 6.0 | 13.0 | 0.00 | 0.00 | 0.00 | 44 | 1007.5 |
| 20260503223436 | 57 | 314 | 6.0 | 15.0 | 0.00 | 0.00 | 0.00 | 44 | 1007.6 |
| 20260503222937 | 57 | 299 | 6.0 | 15.0 | 0.00 | 0.00 | 0.00 | 43 | 1007.6 |
| 20260503222438 | 57 | 22 | 6.0 | 12.0 | 0.00 | 0.00 | 0.00 | 42 | 1007.7 |
| 20260503221937 | 57 | 334 | 6.0 | 13.0 | 0.00 | 0.00 | 0.00 | 43 | 1007.7 |
| 20260503221436 | 57 | 340 | 7.0 | 13.0 | 0.00 | 0.00 | 0.00 | 42 | 1007.8 |
| 20260503220935 | 58 | 353 | 6.0 | 14.0 | 0.00 | 0.00 | 0.00 | 42 | 1007.8 |
| 20260503220437 | 58 | 275 | 8.0 | 14.0 | 0.00 | 0.00 | 0.00 | 42 | 1007.8 |
| 20260503215936 | 58 | 358 | 7.0 | 14.0 | 0.00 | 0.00 | 0.00 | 42 | 1007.8 |
| 20260503215436 | 58 | 320 | 5.0 | 12.0 | 0.00 | 0.00 | 0.00 | 43 | 1007.8 |
| 20260503215155 | 58 | 323 | 5.0 | 12.0 | 0.00 | 0.00 | 0.00 | 42 | 1007.5 |
| 20260503214437 | 58 | 315 | 5.0 | 12.0 | 0.00 | 0.00 | 0.00 | 42 | 1007.6 |
| 20260503213938 | 58 | 312 | 5.0 | 12.0 | 0.00 | 0.00 | 0.00 | 42 | 1007.6 |
| 20260503213437 | 58 | 231 | 6.0 | 14.0 | 0.00 | 0.00 | 0.00 | 43 | 1007.5 |
| 20260503212937 | 58 | 296 | 4.0 | 14.0 | 0.00 | 0.00 | 0.00 | 41 | 1007.4 |
| 20260503212437 | 58 | 5 | 3.0 | 11.0 | 0.00 | 0.00 | 0.00 | 41 | 1007.3 |
| 20260503211937 | 58 | 242 | 5.0 | 12.0 | 0.00 | 0.00 | 0.00 | 42 | 1007.5 |
| 20260503211434 | 57 | 31 | 5.0 | 12.0 | 0.00 | 0.00 | 0.00 | 41 | 1007.4 |
| 20260503210934 | 57 | 235 | 4.0 | 13.0 | 0.00 | 0.00 | 0.00 | 41 | 1007.5 |
| 20260503210434 | 57 | 249 | 6.0 | 13.0 | 0.00 | 0.00 | 0.00 | 41 | 1007.6 |
| 20260503205934 | 57 | 340 | 6.0 | 13.0 | 0.00 | 0.00 | 0.00 | 41 | 1007.6 |
| 20260503205435 | 56 | 300 | 6.0 | 13.0 | 0.00 | 0.00 | 0.00 | 41 | 1007.8 |
| 20260503205201 | 56 | 350 | 6.0 | 13.0 | 0.00 | 0.00 | 0.00 | 42 | 1007.8 |
| 20260503204434 | 56 | 312 | 5.0 | 13.0 | 0.00 | 0.00 | 0.00 | 42 | 1007.8 |
| 20260503204426 | 56 | 280 | 6.0 | 13.0 | 0.00 | 0.00 | 0.00 | 42 | 1007.7 |
| 20260503203700 | 56 | 289 | 7.0 | 13.0 | 0.00 | 0.00 | 0.00 | 43 | 1007.9 |
| 20260503203158 | 56 | 314 | 8.0 | 13.0 | 0.00 | 0.00 | 0.00 | 43 | 1007.9 |
| 20260503202432 | 56 | 277 | 6.0 | 13.0 | 0.00 | 0.00 | 0.00 | 42 | 1008.1 |
| 20260503202201 | 55 | 286 | 6.0 | 11.0 | 0.00 | 0.00 | 0.00 | 43 | 1008.1 |
| 20260503201430 | 55 | 244 | 8.0 | 15.0 | 0.00 | 0.00 | 0.00 | 44 | 1008.2 |
| 20260503200930 | 55 | 305 | 9.0 | 15.0 | 0.00 | 0.00 | 0.00 | 43 | 1008.3 |
| 20260503200428 | 55 | 290 | 9.0 | 14.0 | 0.00 | 0.00 | 0.00 | 42 | 1008.3 |
| 20260503195929 | 55 | 280 | 9.0 | 16.0 | 0.00 | 0.00 | 0.00 | 42 | 1008.4 |
| 20260503195430 | 56 | 313 | 8.0 | 16.0 | 0.00 | 0.00 | 0.00 | 42 | 1008.4 |
| 20260503194931 | 56 | 287 | 8.0 | 16.0 | 0.00 | 0.00 | 0.00 | 42 | 1008.5 |
| 20260503194430 | 55 | 282 | 8.0 | 15.0 | 0.00 | 0.00 | 0.00 | 42 | 1008.5 |
| 20260503193930 | 55 | 272 | 7.0 | 15.0 | 0.00 | 0.00 | 0.00 | 42 | 1008.7 |
| 20260503193429 | 56 | 255 | 6.0 | 12.0 | 0.00 | 0.00 | 0.00 | 42 | 1008.9 |
| 20260503193148 | 55 | 347 | 7.0 | 13.0 | 0.00 | 0.00 | 0.00 | 43 | 1008.9 |
| 20260503192429 | 54 | 297 | 8.0 | 13.0 | 0.00 | 0.00 | 0.00 | 43 | 1009.1 |
| 20260503191927 | 54 | 299 | 6.0 | 13.0 | 0.00 | 0.00 | 0.00 | 43 | 1009.0 |
| 20260503191649 | 53 | 319 | 7.0 | 14.0 | 0.00 | 0.00 | 0.00 | 43 | 1009.1 |
| 20260503191150 | 53 | 300 | 8.0 | 17.0 | 0.00 | 0.00 | 0.00 | 42 | 1009.3 |
| 20260503190647 | 53 | 314 | 9.0 | 17.0 | 0.00 | 0.00 | 0.00 | 45 | 1009.3 |
| 20260503185928 | 53 | 312 | 9.0 | 18.0 | 0.00 | 0.00 | 0.00 | 46 | 1009.4 |
| 20260503185429 | 54 | 260 | 7.0 | 18.0 | 0.00 | 0.00 | 0.00 | 45 | 1009.5 |
| 20260503184927 | 54 | 13 | 6.0 | 13.0 | 0.00 | 0.00 | 0.00 | 46 | 1009.5 |
| 20260503184647 | 54 | 332 | 6.0 | 13.0 | 0.00 | 0.00 | 0.00 | 47 | 1009.6 |
| 20260503184153 | 53 | 264 | 6.0 | 13.0 | 0.00 | 0.00 | 0.00 | 48 | 1009.6 |
| 20260503183429 | 53 | 280 | 6.0 | 12.0 | 0.00 | 0.00 | 0.00 | 48 | 1009.7 |
| 20260503182924 | 53 | 325 | 7.0 | 13.0 | 0.00 | 0.00 | 0.00 | 47 | 1009.6 |
| 20260503182424 | 54 | 356 | 8.0 | 15.0 | 0.00 | 0.00 | 0.00 | 48 | 1009.7 |
| 20260503182151 | 54 | 302 | 8.0 | 16.0 | 0.00 | 0.00 | 0.00 | 47 | 1009.6 |
| 20260503181643 | 54 | 250 | 7.0 | 16.0 | 0.00 | 0.00 | 0.00 | 48 | 1009.6 |
| 20260503180923 | 53 | 276 | 6.0 | 13.0 | 0.00 | 0.00 | 0.00 | 48 | 1009.6 |
| 20260503180423 | 53 | 20 | 6.0 | 12.0 | 0.00 | 0.00 | 0.00 | 48 | 1009.7 |
| 20260503180149 | 53 | 352 | 6.0 | 14.0 | 0.00 | 0.00 | 0.00 | 48 | 1009.8 |
| 20260503175419 | 53 | 328 | 8.0 | 14.0 | 0.00 | 0.00 | 0.00 | 47 | 1009.8 |
| 20260503174919 | 53 | 274 | 8.0 | 15.0 | 0.00 | 0.00 | 0.00 | 48 | 1009.8 |
| 20260503174419 | 53 | 244 | 7.0 | 15.0 | 0.00 | 0.00 | 0.00 | 48 | 1010.0 |
| 20260503173919 | 53 | 265 | 7.0 | 15.0 | 0.00 | 0.00 | 0.00 | 49 | 1009.9 |
| 20260503173419 | 53 | 303 | 7.0 | 15.0 | 0.00 | 0.00 | 0.00 | 48 | 1010.0 |
| 20260503172917 | 53 | 343 | 6.0 | 15.0 | 0.00 | 0.00 | 0.00 | 48 | 1010.1 |
| 20260503172418 | 53 | 324 | 6.0 | 13.0 | 0.00 | 0.00 | 0.00 | 47 | 1010.1 |
| 20260503171918 | 53 | 284 | 5.0 | 12.0 | 0.00 | 0.00 | 0.00 | 47 | 1010.0 |
| 20260503171858 | 53 | 282 | 6.0 | 12.0 | 0.00 | 0.00 | 0.00 | 46 | 1010.0 |
| 20260503170918 | 52 | 262 | 7.0 | 12.0 | 0.00 | 0.00 | 0.00 | 47 | 1010.1 |
| 20260503170418 | 52 | 310 | 7.0 | 13.0 | 0.00 | 0.00 | 0.00 | 47 | 1010.1 |
| 20260503170146 | 52 | 294 | 6.0 | 13.0 | 0.00 | 0.00 | 0.00 | 47 | 1010.2 |
| 20260503150407 | 47 | 200 | 5.0 | 10.0 | 0.00 | 0.00 | 0.00 | 50 | 1011.8 |
| 20260503131400 | 43 | 285 | 4.0 | 9.0 | 0.00 | 0.00 | 0.00 | 53 | 1012.5 |
| 20260503130900 | 44 | 238 | 3.0 | 7.0 | 0.00 | 0.00 | 0.00 | 53 | 1012.6 |
| 20260503130400 | 44 | 350 | 2.0 | 7.0 | 0.00 | 0.00 | 0.00 | 53 | 1012.7 |
| 20260503130120 | 43 | 327 | 3.0 | 8.0 | 0.00 | 0.00 | 0.00 | 55 | 1012.7 |
| 20260503110356 | 37 | 284 | 3.0 | 8.0 | 0.00 | 0.00 | 0.00 | 84 | 1012.4 |
| 20260503090350 | 35 | 0 | 0.0 | 2.0 | 0.00 | 0.00 | 0.00 | 87 | 1012.1 |
| 20260503081612 | 37 | 316 | 1.0 | 3.0 | 0.00 | 0.00 | 0.00 | 85 | 1012.3 |
| 20260503080848 | 38 | 317 | 1.0 | 5.0 | 0.00 | 0.00 | 0.00 | 84 | 1012.3 |
| 20260503080348 | 38 | 310 | 2.0 | 5.0 | 0.00 | 0.00 | 0.00 | 83 | 1012.3 |
| 20260503072844 | 39 | 305 | 4.0 | 8.0 | 0.00 | 0.00 | 0.00 | 81 | 1012.2 |
| 20260503072603 | 39 | 299 | 4.0 | 7.0 | 0.00 | 0.00 | 0.00 | 80 | 1012.2 |
| 20260503071845 | 40 | 299 | 4.0 | 8.0 | 0.00 | 0.00 | 0.00 | 80 | 1012.2 |
| 20260503071608 | 40 | 306 | 4.0 | 8.0 | 0.00 | 0.00 | 0.00 | 80 | 1012.2 |
| 20260503070845 | 40 | 293 | 3.0 | 7.0 | 0.00 | 0.00 | 0.00 | 80 | 1012.2 |
| 20260503070346 | 40 | 351 | 3.0 | 6.0 | 0.00 | 0.00 | 0.00 | 79 | 1012.2 |
| 20260503060340 | 40 | 301 | 3.0 | 7.0 | 0.00 | 0.00 | 0.00 | 79 | 1012.3 |
| 20260503054841 | 40 | 298 | 2.0 | 6.0 | 0.00 | 0.00 | 0.00 | 78 | 1012.3 |
| 20260503054341 | 40 | 303 | 3.0 | 6.0 | 0.00 | 0.00 | 0.00 | 78 | 1012.4 |
| 20260503053842 | 40 | 305 | 3.0 | 6.0 | 0.00 | 0.00 | 0.00 | 78 | 1012.4 |
| 20260503053341 | 40 | 331 | 3.0 | 5.0 | 0.00 | 0.00 | 0.00 | 78 | 1012.5 |
| 20260503052844 | 40 | 338 | 3.0 | 6.0 | 0.00 | 0.00 | 0.00 | 78 | 1012.5 |